This is the latest recevied weather packets stored in our database for station/object E23XBQ-1. If no packets are shown the sender has not sent any weather packets the latest 10 day(s).
| Time | Temp. | Humidity | Pressure | Rain* | Wind** | Luminosity | Snow |
|---|---|---|---|---|---|---|---|
| 1777724488 | 31.11° C | 46% | 967 hPa | - | - | 0 W/m² | - |
| 1777723863 | 31.11° C | 43% | 967 hPa | - | - | 0 W/m² | - |
| 1777723238 | 31.67° C | 46% | 967 hPa | - | - | 0 W/m² | - |
| 1777722613 | 32.22° C | 46% | 967 hPa | - | - | 0 W/m² | - |
| 1777721988 | 32.78° C | 40% | 966 hPa | - | - | 0 W/m² | - |
| 1777721362 | 33.33° C | 43% | 966 hPa | - | - | 0 W/m² | - |
| 1777720738 | 33.33° C | 42% | 966 hPa | - | - | 0 W/m² | - |
| 1777720113 | 33.33° C | 42% | 966 hPa | - | - | 0 W/m² | - |
| 1777719488 | 33.89° C | 40% | 966 hPa | - | - | 0 W/m² | - |
| 1777718864 | 33.89° C | 42% | 966 hPa | - | - | 0 W/m² | - |
| 1777718238 | 33.89° C | 37% | 966 hPa | - | - | 0 W/m² | - |
| 1777717613 | 34.44° C | 34% | 966 hPa | - | - | 0 W/m² | - |
| 1777716989 | 35.56° C | 37% | 966 hPa | - | - | 0 W/m² | - |
| 1777716365 | 36.67° C | 34% | 966 hPa | - | - | 0 W/m² | - |
| 1777715740 | 36.11° C | 36% | 966 hPa | - | - | 0 W/m² | - |
| 1777715116 | 36.11° C | 32% | 966 hPa | - | - | 0 W/m² | - |
| 1777714492 | 36.11° C | 31% | 966 hPa | - | - | 0 W/m² | - |
| 1777713867 | 36.67° C | 36% | 966 hPa | - | - | 0 W/m² | - |
| 1777713243 | 37.22° C | 35% | 966 hPa | - | - | 0 W/m² | - |
| 1777712618 | 36.67° C | 33% | 966 hPa | - | - | 0 W/m² | - |
| 1777711993 | 36.11° C | 34% | 966 hPa | - | - | 0 W/m² | - |
| 1777711369 | 36.11° C | 36% | 967 hPa | - | - | 0 W/m² | - |
| 1777710744 | 36.67° C | 35% | 967 hPa | - | - | 0 W/m² | - |
| 1777710119 | 37.22° C | 37% | 967 hPa | - | - | 0 W/m² | - |
| 1777709494 | 37.22° C | 33% | 967 hPa | - | - | 0 W/m² | - |
* Rain since midnight (hover to see other rain measurements)
** Current wind speed in m/s (hover to see current wind gust speed)